This is the latest recevied weather packets stored in our database for station/object SQ6RR-12. If no packets are shown the sender has not sent any weather packets the latest 10 day(s).
| Time | Temp. | Humidity | Pressure | Rain* | Wind** | Luminosity | Snow |
|---|---|---|---|---|---|---|---|
| 1777380241 | 15° C | 30% | 1024.2 hPa | 0 mm | - | - | - |
| 1777379967 | 15.56° C | 32% | 1024.1 hPa | 0 mm | - | - | - |
| 1777379713 | 15.56° C | 31% | 1024.1 hPa | 0 mm | - | - | - |
| 1777379432 | 15.56° C | 32% | 1024 hPa | 0 mm | - | - | - |
| 1777379160 | 15° C | 33% | 1024.2 hPa | 0 mm | - | - | - |
| 1777378898 | 13.89° C | 34% | 1024.2 hPa | 0 mm | - | - | - |
| 1777378351 | 14.44° C | 33% | 1024.2 hPa | 0 mm | - | - | - |
| 1777378067 | 13.33° C | 36% | 1024.1 hPa | 0 mm | - | - | - |
| 1777377809 | 13.33° C | 35% | 1024.1 hPa | 0 mm | - | - | - |
| 1777377543 | 13.89° C | 36% | 1024.3 hPa | 0 mm | - | - | - |
| 1777377266 | 13.33° C | 37% | 1024.3 hPa | 0 mm | - | - | - |
| 1777377008 | 13.33° C | 36% | 1024.2 hPa | 0 mm | - | - | - |
| 1777376727 | 13.89° C | 36% | 1024.4 hPa | 0 mm | - | - | - |
| 1777376453 | 13.89° C | 36% | 1024.2 hPa | 0 mm | - | - | - |
| 1777376181 | 13.33° C | 38% | 1024.3 hPa | 0 mm | - | - | - |
| 1777375894 | 13.33° C | 36% | 1024.4 hPa | 0 mm | - | - | - |
| 1777375628 | 13.89° C | 37% | 1024.4 hPa | 0 mm | - | - | - |
| 1777375358 | 13.89° C | 37% | 1024.4 hPa | 0 mm | - | - | - |
| 1777375083 | 13.33° C | 36% | 1024.5 hPa | 0 mm | - | - | - |
| 1777374798 | 13.33° C | 38% | 1024.6 hPa | 0 mm | - | - | - |
| 1777374537 | 13.33° C | 37% | 1024.6 hPa | 0 mm | - | - | - |
| 1777374253 | 13.33° C | 38% | 1024.7 hPa | 0 mm | - | - | - |
| 1777373985 | 13.33° C | 39% | 1024.6 hPa | 0 mm | - | - | - |
| 1777373723 | 13.33° C | 42% | 1024.5 hPa | 0 mm | - | - | - |
| 1777373453 | 13.33° C | 39% | 1024.6 hPa | 0 mm | - | - | - |
* Rain latest hour (hover to see other rain measurements)
** Current wind speed in m/s (hover to see current wind gust speed)